St. George, AK

4:45 AM AKDT on September 22, 2017 (GMT -0800)
Saint George

Weather History for PAPB - February, 2014

Change the Weather History Date:

Wednesday, February 26, 2014

  Actual Average Record
Temperature  
Mean Temperature 32 °F -  
Max Temperature 33 °F 31 °F 39 °F (2003)
Min Temperature 32 °F 25 °F 8 °F (2012)
Degree Days  
Heating Degree Days 32    
Moisture  
Dew Point 31 °F    
Average Humidity 96    
Maximum Humidity 100    
Minimum Humidity 92    
Precipitation  
Precipitation 0.04 in - - ()
Sea Level Pressure  
Sea Level Pressure 29.19 in    
Wind  
Wind Speed 19 mph (NNE)    
Max Wind Speed 28 mph    
Max Gust Speed 33 mph    
Visibility 4 miles    
Events Snow    
Averages and records for this station are not official NWS values.
T = Trace of Precipitation, MM = Missing Value Source: NWS Daily Summary

Daily Weather History Graph

Daily Weather History Graph

Search for Another Location

Airport or City:

Trip Planner

Search our weather history database for the weather conditions in past years. The results will help you decide how hot, cold, wet, or windy it might be!

Date:

Astronomy

Feb. 26, 2014 Rise Set
Actual Time 9:17 AM AKST 7:46 PM AKST
Civil Twilight 8:39 AM AKST 8:24 PM AKST
Nautical Twilight 7:56 AM AKST 9:07 PM AKST
Astronomical Twilight 7:12 AM AKST 9:52 PM AKST
Moon 7:38 AM AKST (2/26) 4:56 PM AKST (2/26)
Length of Visible Light 11h 44m
Length of Day
10h 28m
Waning Crescent, 9% of the Moon is Illuminated
Feb 26
Waning Crescent
Feb 28
New
Mar 8
First Quarter
Mar 16
Full
Mar 23
Last Quarter

Hourly Weather History & Observations

Time (AKST) Temp. Windchill Dew Point Humidity Pressure Visibility Wind Dir Wind Speed Gust Speed Precip Events Conditions
12:05 AM 32.0 °F 20.1 °F 30.9 °F 96% 29.35 in 1.2 mi NE 19.6 mph - 0.01 in Snow Light Snow
12:21 AM 32.0 °F 19.2 °F 32.0 °F 100% 29.34 in 1.0 mi NE 23.0 mph - 0.01 in Snow Light Snow
12:36 AM 32.0 °F 18.6 °F 32.0 °F 100% 29.33 in 1.2 mi NE 25.3 mph 29.9 mph 0.01 in Snow Light Snow
12:53 AM 32.0 °F 18.6 °F 32.0 °F 100% 29.29 in 1.8 mi NE 25.3 mph 29.9 mph 0.01 in Snow Light Snow
1:00 AM 32.0 °F 18.6 °F 30.9 °F 96% 29.32 in 2.5 mi ENE 25.3 mph - 0.00 in Snow Light Snow
1:07 AM 32.0 °F 18.9 °F 30.9 °F 96% 29.32 in 3.0 mi NE 24.2 mph - 0.00 in Snow Light Snow
1:14 AM 32.0 °F 18.4 °F 30.9 °F 96% 29.32 in 2.5 mi NE 26.5 mph - 0.00 in Snow Light Snow
1:24 AM 32.0 °F 18.4 °F 30.9 °F 96% 29.31 in 2.5 mi NE 26.5 mph - 0.00 in Snow Light Snow
1:36 AM 32.0 °F 19.2 °F 30.9 °F 96% 29.31 in 1.5 mi NE 23.0 mph - 0.00 in Snow Light Snow
1:53 AM 32.0 °F 18.6 °F 30.9 °F 96% 29.27 in 2.5 mi NE 25.3 mph 32.2 mph 0.00 in Snow Light Snow
1:57 AM 32.0 °F 19.2 °F 30.9 °F 96% 29.30 in 3.0 mi NE 23.0 mph 32.2 mph 0.00 in Snow Light Snow
2:07 AM 32.0 °F 19.2 °F 30.9 °F 96% 29.30 in 2.5 mi NE 23.0 mph - 0.00 in Snow Light Snow
2:38 AM 32.0 °F 18.1 °F 30.9 °F 96% 29.27 in 4.0 mi NE 27.6 mph 33.4 mph 0.00 in Snow Light Snow
2:57 AM 32.0 °F 18.4 °F 30.0 °F 92% 29.27 in 6.0 mi NE 26.5 mph - 0.00 in Snow Light Snow
3:14 AM 32.0 °F 18.9 °F 30.9 °F 96% 29.27 in 2.0 mi NE 24.2 mph - 0.00 in Snow Light Snow
3:18 AM 32.0 °F 19.5 °F 30.9 °F 96% 29.27 in 2.0 mi NE 21.9 mph 31.1 mph 0.00 in Snow Light Snow
3:22 AM 32.0 °F 19.5 °F 30.9 °F 96% 29.26 in 2.0 mi NE 21.9 mph - 0.00 in Snow Light Snow
3:29 AM 32.0 °F 19.2 °F 30.9 °F 96% 29.26 in 2.0 mi NE 23.0 mph - 0.00 in Snow Light Snow
3:37 AM 32.0 °F 19.5 °F 30.9 °F 96% 29.26 in 1.8 mi NE 21.9 mph - 0.00 in Snow Light Snow
3:53 AM 32.0 °F 20.5 °F 30.9 °F 96% 29.22 in 1.8 mi NE 18.4 mph - 0.00 in Snow Light Snow
4:02 AM 32.0 °F 19.5 °F 30.9 °F 96% 29.25 in 2.5 mi NE 21.9 mph - 0.00 in Snow Light Snow
4:26 AM 32.0 °F 19.5 °F 30.9 °F 96% 29.24 in 3.0 mi NE 21.9 mph - 0.00 in Snow Light Snow
4:53 AM 32.0 °F 19.8 °F 30.0 °F 92% 29.20 in 5.0 mi NE 20.7 mph - 0.00 in Snow Light Snow
5:53 AM 32.0 °F 21.2 °F 30.9 °F 96% 29.18 in 3.0 mi NE 16.1 mph - 0.00 in Snow Light Snow
5:58 AM 32.0 °F 20.5 °F 30.9 °F 96% 29.21 in 2.5 mi NE 18.4 mph - 0.00 in Snow Light Snow
6:03 AM 32.0 °F 20.8 °F 30.9 °F 96% 29.21 in 3.0 mi NE 17.3 mph - 0.00 in Snow Light Snow
6:18 AM 32.0 °F 21.2 °F 30.9 °F 96% 29.20 in 4.0 mi NE 16.1 mph - 0.00 in Snow Light Snow
6:53 AM 32.0 °F 20.8 °F 30.9 °F 96% 29.16 in 4.0 mi NE 17.3 mph - 0.00 in Snow Light Snow
7:08 AM 32.0 °F 20.1 °F 30.9 °F 96% 29.19 in 4.0 mi NNE 19.6 mph - 0.00 in Snow Light Snow
7:53 AM 32.0 °F 21.2 °F 32.0 °F 100% 29.15 in 3.0 mi NNE 16.1 mph - 0.00 in Snow Light Snow
8:45 AM 32.0 °F 21.2 °F 32.0 °F 100% 29.17 in 2.5 mi NNE 16.1 mph - 0.00 in Snow Light Snow
8:53 AM 32.0 °F 21.2 °F 30.9 °F 96% 29.13 in 4.0 mi NNE 16.1 mph - 0.00 in Snow Light Snow
9:06 AM 32.0 °F 20.5 °F 30.9 °F 96% 29.16 in 2.0 mi NNE 18.4 mph - 0.00 in Snow Light Snow
9:38 AM 32.0 °F 21.2 °F 32.0 °F 100% 29.15 in 1.5 mi NNE 16.1 mph - 0.00 in Snow Light Snow
9:53 AM 32.0 °F 21.6 °F 32.0 °F 100% 29.12 in 2.0 mi North 15.0 mph - 0.00 in Snow Light Snow
10:04 AM 32.0 °F 21.2 °F 32.0 °F 100% 29.15 in 1.5 mi North 16.1 mph - 0.01 in Snow Light Snow
10:31 AM 32.0 °F 21.6 °F 30.9 °F 96% 29.15 in 1.5 mi North 15.0 mph 19.6 mph 0.01 in Snow Light Snow
10:46 AM 32.0 °F 23.0 °F 32.0 °F 100% 29.15 in 2.0 mi North 11.5 mph - 0.01 in Snow Light Snow
10:53 AM 32.0 °F 23.0 °F 32.0 °F 100% 29.12 in 2.0 mi North 11.5 mph - 0.01 in Snow Light Snow
11:00 AM 33.1 °F 24.4 °F 30.9 °F 92% 29.15 in 1.5 mi North 11.5 mph - 0.00 in Snow Light Snow
11:26 AM 32.0 °F 24.2 °F 32.0 °F 100% 29.14 in 1.0 mi North 9.2 mph - 0.01 in Snow Light Snow
11:45 AM 33.1 °F 24.9 °F 30.9 °F 92% 29.14 in 1.2 mi North 10.4 mph - 0.01 in Snow Light Snow
11:53 AM 33.1 °F 24.4 °F 30.9 °F 92% 29.11 in 2.0 mi North 11.5 mph - 0.01 in Snow Light Snow
12:06 PM 33.1 °F 23.9 °F 30.9 °F 92% 29.14 in 3.0 mi NNW 12.7 mph 20.7 mph 0.01 in Snow Light Snow
12:39 PM 33.1 °F 23.0 °F 30.9 °F 92% 29.13 in 2.0 mi North 15.0 mph - 0.01 in Snow Light Snow
12:53 PM 33.1 °F 26.1 °F 30.9 °F 92% 29.10 in 3.0 mi NNW 8.1 mph - 0.01 in Snow Light Snow
1:53 PM 33.1 °F 24.9 °F 32.0 °F 96% 29.09 in 10.0 mi North 10.4 mph - 0.00 in   Overcast
2:24 PM 33.1 °F 26.1 °F 32.0 °F 96% 29.11 in 10.0 mi North 8.1 mph - N/A   Overcast
2:53 PM 33.1 °F 24.9 °F 32.0 °F 96% 29.08 in 10.0 mi NNW 10.4 mph - N/A   Overcast
3:53 PM 33.1 °F 24.9 °F 32.0 °F 96% 29.08 in 10.0 mi NNW 10.4 mph - N/A   Overcast
4:53 PM 33.1 °F 26.9 °F 32.0 °F 96% 29.08 in 10.0 mi NW 6.9 mph - N/A   Overcast
5:17 PM 33.1 °F 24.9 °F 30.9 °F 92% 29.12 in 10.0 mi NW 10.4 mph - N/A   Overcast
5:53 PM 33.1 °F 25.5 °F 30.9 °F 92% 29.09 in 10.0 mi NW 9.2 mph - N/A   Overcast
6:53 PM 32.0 °F 23.6 °F 30.9 °F 96% 29.10 in 10.0 mi NW 10.4 mph - N/A   Overcast
7:53 PM 32.0 °F 23.0 °F 30.9 °F 96% 29.11 in 10.0 mi WNW 11.5 mph - N/A   Overcast
8:53 PM 32.0 °F 22.5 °F 30.0 °F 92% 29.13 in 10.0 mi WNW 12.7 mph - N/A   Overcast
9:22 PM 32.0 °F 22.5 °F 30.0 °F 92% 29.17 in 10.0 mi NW 12.7 mph - N/A   Overcast
9:53 PM 32.0 °F 22.5 °F 30.0 °F 92% 29.14 in 10.0 mi WNW 12.7 mph - N/A   Overcast
10:49 PM 32.0 °F 23.6 °F 30.2 °F 93% 29.18 in 7.0 mi WNW 10.4 mph - 0.00 in Snow Light Snow
10:53 PM 32.0 °F 23.6 °F 30.9 °F 96% 29.15 in 7.0 mi NW 10.4 mph - 0.00 in Snow Light Snow
11:14 PM 32.0 °F 24.2 °F 30.0 °F 92% 29.19 in 5.0 mi NW 9.2 mph - 0.00 in Snow Light Snow
11:53 PM 32.0 °F 22.5 °F 30.0 °F 92% 29.16 in 10.0 mi NW 12.7 mph - 0.00 in   Overcast